www.pogodaiklimat.ru

Погода и климат >> Архив погоды >> Аргентина >> Neuquen


ПОГОДА в Neuquen

  • Прогноз погоды в Neuquen
  • Монитор погоды в Neuquen
  • Климат города

АРХИВ ПОГОДЫ в Neuquen

Время (UTC), дата Ветер
(напр.,м/с)
 
Видим.   Явления Облачность Т
(С)
Тd
(С)
f
(%)
Тe
(С)
Тes
(С)
Комфортность P
(гПа)
Po
(гПа)
Тmin
(С)
Tmax
(С)
R
(мм)
R24
(мм)
S
(см)
15 9.10 З 11 15 км ясно +14.6 -10.1 17 +12 +13 1018.4 986.1
18 9.10 З 9 15 км 4/0
[Ac As]
+14.6 -10.1 17 +13 +14 1018.6 986.2
21 9.10 ЮЗ 10 15 км 4/0
[Ac As]
+14.8 -10.8 16 +13 +13 1019.4 986.8
00 10.10 З 2 15 км ясно +12.2 -6.6 26 +12 +12 1021.7 989.0 +10.0 +16.1
03 10.10 ЮЗ 4 15 км ясно +9.4 -2.8 42 +7 +7 1024.4 991.8
06 10.10 З 3 15 км ясно +6.2 -2.6 53 +4 +4 1025.3 992.5
09 10.10 СЗ 2 15 км ясно +2.6 -4.0 62 -0 -0 1026.3 993.3
12 10.10 СЗ 1 15 км ясно +6.0 -1.8 57 +5 +9 1028.4 995.3 +1.7 +12.4
15 10.10 СВ 3 15 км ясно +12.5 -5.0 29 +12 +25 опасность
простуды
1027.8 995.0
18 10.10 С 3 15 км ясно +15.3 -5.0 24 +15 +28 опасность
простуды
1025.1 992.2
21 10.10 В 2 15 км ясно +15.6 -5.3 23 +16 +20 1023.1 990.3
00 11.10 ЮВ 2 15 км ясно +12.8 -2.7 34 +12 +12 1023.7 990.8 +6.0 +16.5
03 11.10 В 3 15 км ясно +10.5 -3.7 37 +9 +9 1023.7 991.0
06 11.10 ЮВ 4 15 км ясно +8.9 -3.2 42 +6 +6 1021.9 989.4
09 11.10 ЮВ 3 15 км 6/0
[Cs]
+8.1 -2.3 48 +6 +6 1020.9 988.4
12 11.10 В 5 15 км 9/1 1350 м
[Sc Ac As Cs]
+10.8 -2.8 38 +8 +9 1020.8 988.2 +7.2 +12.9
15 11.10 СВ 9 15 км 10/4 1350 м
[Sc As op]
+14.4 0.0 37 +12 +12 1020.2 987.8
18 11.10 В 4 15 км 10/4 1200 м
[Sc As op]
+16.2 +0.3 34 +16 +17 1017.7 985.4
21 11.10 СВ 4 15 км 9/3 1200 м
[Sc Ac As Cs]
+17.3 +0.9 33 +17 +18 1015.8 983.4
00 12.10 В 3 15 км 5/0
[Ac As Cs]
+14.4 +3.5 48 +14 +14 1015.8 983.4 +10.8 +17.7
03 12.10 Ю 1 15 км 3/0
[Cs]
+10.4 +5.2 70 +10 +10 1016.1 983.8
06 12.10 З 2 15 км ясно +9.8 +2.0 58 +9 +9 1016.0 983.8
09 12.10 З 2 15 км ясно +6.4 0.0 64 +5 +5 1017.0 984.6
12 12.10 ЮЗ 5 15 км ясно +10.5 -0.1 48 +8 +10 1018.5 986.1 +6.1 +14.4
15 12.10 З 8 15 км ясно +15.2 -1.1 33 +14 +17 1018.2 985.8
18 12.10 ЮЗ 5 15 км ясно +20.1 -6.3 16 +20 +27 1016.4 984.4
21 12.10 ЮЗ 2 15 км 1/0
[Cs]
+21.3 -6.2 15 +20 +24 1015.5 983.4
00 13.10 Ю 2 15 км 6/0
[Cs]
+17.1 -2.5 26 +18 +18 1018.1 985.8 +10.5 +21.6
03 13.10 штиль 0 50 км ?/? +15.2 -2.6 29 +15 +15 1019.5 987.4
06 13.10 З 2 15 км 4/0
[Cs]
+10.8 -0.6 45 +10 +10 1019.9 987.8
09 13.10 З 2 15 км 3/0
[Cs]
+7.2 -4.1 44 +6 +6 1020.6 988.4
12 13.10 З 3 15 км ясно +10.6 +0.4 49 +9 +12 1021.7 989.4 +4.6 +17.1
15 13.10 З 4 15 км ясно +18.4 -1.9 25 +18 +29 1019.5 987.6
18 13.10 СЗ 7 15 км 3/0
[Cs]
+24.2 -5.5 13 +22 +26 комфорт 1015.8 984.1
21 13.10 З 5 15 км 6/0
[Cs]
+24.8 -4.9 14 +23 +24 комфорт 1013.5 981.7
00 14.10 ЮЗ 2 15 км ясно +16.4 +3.9 43 +17 +17 1014.6 982.5 +10.6 +25.1
03 14.10 З 3 15 км ясно +17.2 -0.7 30 +17 +17 1015.1 983.4
06 14.10 З 4 15 км ясно +14.2 +1.1 41 +13 +13 1015.1 983.6
09 14.10 З 4 15 км ясно +13.1 +1.9 47 +12 +12 1015.1 983.4
12 14.10 З 2 15 км 6/0
[Ac As]
+14.8 +2.9 45 +15 +17 1017.1 985.0 +11.6 +18.1
15 14.10 З 3 15 км 8/0
[Ac As Cs]
+21.2 +3.7 32 +21 +29 комфорт 1016.0 984.4
18 14.10 З 4 15 км 4/0
[Cs]
+25.1 +3.0 24 +24 +34 комфорт 1012.7 981.3
21 14.10 ЮЗ 3 15 км 5/0
[Ac lent Cs]
+25.5 +0.9 20 +24 +27 комфорт 1009.9 978.5
00 15.10 З 5 15 км 3/0
[Cs]
+22.0 0.0 23 +21 +21 комфорт 1010.5 979.0 +14.5 +26.7
03 15.10 З 4 15 км ясно +17.0 +4.4 43 +17 +17 1010.6 979.2
06 15.10 З 2 15 км 5/0
[Cs]
+14.8 +5.9 55 +15 +15 1009.1 977.8
09 15.10 З 2 15 км 5/0
[Cs]
+11.1 +5.8 70 +10 +10 1008.0 976.6
12 15.10 ЮЗ 3 15 км 8/0
[Ac As Cs]
+17.4 +5.8 46 +18 +20 1007.7 976.5 +10.5 +22.0
15 15.10 З 4 15 км 9/0
[Ac As Cs]
+20.3 -1.2 24 +20 +27 1006.6 975.3
18 15.10 З 4 10 км слабый дождь 10/0 1500 м
[As op Cs]
+23.4 +0.7 22 +22 +25 комфорт 1004.0 972.8 0.0

 

Местоположение метеостанции Neuquen (Аргентина): широта -38.95 долгота -68.13 высота над уровнем моря 271 м.

В архиве по умолчанию представлена погода в Neuquen за последнюю неделю. Архивные данные за месяц целиком и за предыдущие месяцы, начиная с января 2011 года, Вы можете получить, выбрав интересующий диапазон дат из раскрывающегося списка и нажав кнопку "Ввод!".


*Определитесь, кто Вы:
робот инопланетянин человек

Внимание! Время в таблицах - всемирное. Для получения местного времени необходимо прибавить поправку, которая в Neuquen равна -3 ч.

Смотрите также архив погоды в соседних городах и на ближайших метеорологических станциях:

Погода в Maquinchao (Аргентина) (261 км)
Погода в San Antonio Oeste (Аргентина) (330 км)
Погода в San Carlos de Bariloche (Аргентина) (356 км)
Погода в Temuco (Чили) (390 км)
Погода в Araucania (Чили) (391 км)
Погода в Malargue (Аргентина) (405 км)
Погода в Santa Rosa (Аргентина) (432 км)
Погода в Valdivia (Чили) (433 км)
Погода в Chillan (Чили) (434 км)
Погода в El Bolson (Аргентина) (442 км)

Пояснения к столбцам:

Ветер - указаны скорость ветра в м/с - средняя за 10 мин, порывы в срок и между сроками (в фигурных скобках) и направление, откуда дует ветер: С - северный, СВ - северо-восточный, В - восточный, ЮВ - юго-восточный, Ю - южный, ЮЗ - юго-западный, З - западный, СЗ - северо-западный.
Видимость - горизонтальная дальность видимости в метрах или километрах. При видимости от 1 до 10 км при отсутствии осадков обычно наблюдается дымка, при ухудшении видимости до 1 км и менее - туман. В сухую погоду видимость может ухудшаться дымом, пылью или мглою.
Явления - указаны атмосферные явления, наблюдавшиеся в срок или в последний час перед сроком; фигурными скобками обозначены явления, наблюдавшиеся между сроками (за 1-3 часа до срока); квадратными скобками обозначены град или гололедные отложения с указанием их диаметра в мм.
Облачность - указаны через наклонную черту общая и нижняя облачность в баллах и высота нижней границы облаков в метрах; квадратными скобками обозначены формы облаков: Ci - перистые, Cs - перисто-слоистые, Cc - перисто-кучевые, Ac - высококучевые, As - высокослоистые, Sc - слоисто-кучевые, Ns - слоисто-дождевые, Cu - кучевые, Cb - кучево-дождевые. Подробнее классификацию облаков см. в Атласе облаков (PDF).
T - Температура воздуха - температура, измеренная на высоте 2 м над землей.
Td - Температура точки росы - температура, при понижении до которой содержащийся в воздухе водяной пар достигнет насыщения.
f - Относительная влажность воздуха - влажноcть воздуха, измеренная на высоте 2 м над землей.
Te - Эффективная температура - температура, которую ощущает одетый по сезону человек в тени. Характеристика душности погоды. При расчете учитывается влияние влажности воздуха и скорости ветра на теплоощущения человека.
Tes - Эффективная температура на солнце - температура, которую ощущает человек, с поправкой на солнечный нагрев. Характеристика знойности погоды. Зависит от высоты солнца над горизонтом, облачности и скорости ветра. Ночью, в пасмурную погоду, а также при ветре 12 м/с и более поправка равна нулю.
P - Атмосферное давление - приведенное к уровню моря атмосферное давление.
Po - Атмосферное давление - измеренное на уровне метеостанции атмосферное давление.
Tmin - Минимальная температура - минимум температуры воздуха на высоте 2 м над землей.
Tmax - Максимальная температура - максимум температуры воздуха на высоте 2 м над землей.
R - Количество осадков - Количество выпавших осадков за период времени, мм. При наведении курсора мыши на число - период времени, за который выпало указанное количество осадков.
R24 - Количество осадков - Количество выпавших осадков за 24 часа, мм.
S - Снежный покров - Высота снежного покрова, см. При наведении курсора мыши на число - состояние снежного покрова и степень покрытия местности в баллах.